www.pogodaiklimat.ru

Погода и климат >> Архив погоды >> Россия >> Ленинградская область >> Сосновый Бор


ПОГОДА в Сосновом Бору

  • Прогноз погоды в Сосновом Бору
  • Монитор погоды в Сосновом Бору

АРХИВ ПОГОДЫ в Сосновом Бору

Время (UTC), дата Ветер
(напр.,м/с)
 
Видим.   Явления Облачность Т
(С)
Тd
(С)
f
(%)
Тe
(С)
Тes
(С)
Комфортность P
(гПа)
Po
(гПа)
Тmin
(С)
Tmax
(С)
R
(мм)
R24
(мм)
S
(см)
21 11.04 С 2 н/о 10/10
[St]
-0.9 -5.8 69 -4 -4 1026.6 1024.1
00 12.04 С 1 н/о н/о -0.8 -5.0 73 -3 -3 1027.6 1025.0
03 12.04 штиль 0 н/о ясно -1.8 -4.5 82 -3 -3 1028.7 1026.0 -1.9
06 12.04 С 2 н/о ясно +0.6 -4.9 67 -3 +1 1029.5 1026.9 -2.7
09 12.04 СЗ 4 н/о 1/0
[]
+1.5 -3.0 72 -3 +2 1030.0 1027.4
12 12.04 СЗ 4 н/о 3/0
[Ci fib]
+2.6 -3.1 66 -2 +3 1030.2 1027.6
15 12.04 СЗ 3 н/о 1/0
[]
+3.0 -3.9 60 -1 +1 1029.6 1027.0
21 12.04 З 1 н/о н/о -1.3 -3.5 85 -3 -3 1030.7 1028.0
03 13.04 штиль 0 н/о 8/8
[Sc]
-2.4 -3.5 92 -4 -4 1031.9 1029.2 -2.6
06 13.04 В 2 н/о 8/5
[Cb cap Ac lent Ci fib]
+2.2 -1.8 75 -1 0 1032.4 1029.9 -2.7
09 13.04 СВ 3 н/о 8/6
[Sc diur, vesp Ac trans]
+6.2 -4.0 48 +4 +6 1032.7 1030.1
12 13.04 С 3 н/о 9/9
[Cu Sc Ac As]
+5.8 -3.7 50 +3 +4 1033.0 1030.4
15 13.04 СВ 3 н/о 5/5
[Sc diur, vesp]
+6.3 -5.1 44 +4 +5 1032.6 1030.0
18 13.04 СВ 2 н/о 1/1
[Cu hum]
+3.0 -4.4 58 +1 +1 1033.3 1030.7 +6.5
21 13.04 СВ 1 н/о ясно +0.2 -3.8 74 -2 -2 1033.9 1031.3
00 14.04 Ю 1 н/о ясно -2.8 -3.9 92 -5 -5 1034.5 1031.8
03 14.04 ЮЗ 1 н/о 5/5
[Sc diur, vesp]
-1.9 -2.9 93 -4 -4 1034.5 1031.8 -3.2
06 14.04 С 2 н/о ясно +3.6 -2.6 64 +1 +5 1034.5 1031.9 -3.2
09 14.04 СВ 3 н/о 3/3
[Cu hum]
+6.9 -4.6 44 +5 +10 1034.8 1032.2
12 14.04 СВ 3 н/о 3/3
[Sc]
+8.3 -5.8 36 +6 +11 1034.2 1031.6
15 14.04 СВ 2 н/о 8/8
[Sc Ci fib]
+7.4 -6.2 37 +6 +6 1033.7 1031.1
18 14.04 С 1 н/о 1/1
[Sc diur, vesp]
+4.0 -5.9 48 +3 +3 1034.0 1031.4 +8.7
21 14.04 СВ 1 н/о ясно +1.3 -5.1 62 0 0 1034.9 1032.3
00 15.04 Ю 1 н/о ясно -2.9 -4.2 91 -5 -5 1035.4 1032.7
03 15.04 штиль 0 н/о ясно -3.7 -4.6 93 -5 -5 1035.6 1032.9 -3.8
06 15.04 З 1 н/о 1/0
[Ci fib]
+3.2 -3.2 63 +2 +6 1035.8 1033.2 -3.8
09 15.04 СЗ 4 н/о 3/0
[Cs]
+5.0 -1.5 63 +1 +7 1036.4 1033.8
12 15.04 СЗ 4 н/о 3/0
[Cs]
+6.4 -3.0 51 +3 +8 1034.9 1032.3
15 15.04 СЗ 3 н/о 3/0
[Cs]
+6.5 -2.9 51 1033.5
18 15.04 СЗ 1 н/о ясно +4.0 -0.6 72 +3 +3 1032.9 1030.3 +7.8
21 15.04 Ю 1 н/о ясно -0.9 -2.4 90 -3 -3 1033.5 1030.8
00 16.04 штиль 0 н/о ясно -1.6 -2.7 92 -3 -3 1033.6 1030.9
03 16.04 штиль 0 н/о ясно -2.4 -3.0 96 -4 -4 1033.6 1030.9 -2.5
06 16.04 СЗ 1 н/о ясно +5.8 +0.3 68 +5 +9 1034.0 1031.4 -2.4
09 16.04 СЗ 2 н/о ясно +7.8 -0.3 57 +6 +16 опасность
простуды
1034.6 1032.0
15 16.04 СВ 3 н/о ясно +12.1 -10.2 20 +11 +13 1033.4 1030.9
18 16.04 В 3 н/о н/о +7.4 -0.8 56 +5 +5 1034.2 1031.6 +13.5
00 17.04 В 2 н/о ясно +0.9 -1.4 85 -3 -3 1035.4 1032.8
03 17.04 штиль 0 н/о ясно -0.6 -2.1 90 -2 -2 1035.8 1033.1 -0.6
06 17.04 штиль 0 н/о ясно +5.7 0.0 67 +5 +10 1036.1 1033.5 -0.6
09 17.04 З 3 н/о н/о +9.0 +0.3 54 +7 +7 1035.8 1033.2
12 17.04 СЗ 3 н/о 3/0
[Ci fib]
+10.1 -0.5 48 +8 +15 1034.6 1032.0
15 17.04 С 2 н/о 9/0
[Ci]
+8.2 -0.4 55 +7 +9 1034.0 1031.4
18 17.04 штиль 0 н/о 10/0
[Ac trans Cs]
+6.3 +0.9 68 +6 +6 1033.1 1030.5 +10.6
21 17.04 Ю 1 н/о 10/0
[Cs]
+2.1 +0.7 90 0 0 1033.2 1030.6
00 18.04 ЮЗ 1 н/о 10/0
[Ac trans Cs]
+2.5 +0.8 89 +1 +1 1032.8 1030.2
06 18.04 З 1 н/о 3/0
[Ci fib]
+8.0 +2.0 66 +8 +12 1033.5 1030.9 -0.7

 

Местоположение метеостанции Сосновый Бор (Ленинградская область, Россия): широта 59.82 долгота 29.17 высота над уровнем моря 21 м.

В архиве по умолчанию представлена погода в Сосновом Бору за последнюю неделю. Архивные данные за месяц целиком и за предыдущие месяцы, начиная с января 2011 года, Вы можете получить, выбрав интересующий диапазон дат из раскрывающегося списка и нажав кнопку "Ввод!".


*Определитесь, кто Вы:
робот инопланетянин человек

Внимание! Время в таблицах - всемирное. Для получения местного времени необходимо прибавить поправку, которая равна 3 ч.

Смотрите также архив погоды в соседних городах и на ближайших метеорологических станциях:

Погода в Шепелево (Ленинградская область, Россия) (7 км)
Погода в Ломоносове (город Санкт-Петербург, Россия) (36 км)
Погода в Кронштадте (город Санкт-Петербург, Россия) (37 км)
Погода в Озерках (Ленинградская область, Россия) (43 км)
Погода в Волосово (Ленинградская область, Россия) (47 км)
Погода в Лисьем Носу (город Санкт-Петербург, Россия) (50 км)
Погода в Рощино (Ленинградская область, Россия) (54 км)
Погода в Кингисеппе (Ленинградская область, Россия) (59 км)
Погода в Санкт-Петербурге (город Санкт-Петербург, Россия) (65 км)
Погода в Белогорке (Ленинградская область, Россия) (75 км)

Пояснения к столбцам:

Ветер - указаны скорость ветра в м/с - средняя за 10 мин, порывы в срок и между сроками (в фигурных скобках) и направление, откуда дует ветер: С - северный, СВ - северо-восточный, В - восточный, ЮВ - юго-восточный, Ю - южный, ЮЗ - юго-западный, З - западный, СЗ - северо-западный.
Видимость - горизонтальная дальность видимости в метрах или километрах. При видимости от 1 до 10 км при отсутствии осадков обычно наблюдается дымка, при ухудшении видимости до 1 км и менее - туман. В сухую погоду видимость может ухудшаться дымом, пылью или мглою.
Явления - указаны атмосферные явления, наблюдавшиеся в срок или в последний час перед сроком; фигурными скобками обозначены явления, наблюдавшиеся между сроками (за 1-3 часа до срока); квадратными скобками обозначены град или гололедные отложения с указанием их диаметра в мм.
Облачность - указаны через наклонную черту общая и нижняя облачность в баллах и высота нижней границы облаков в метрах; квадратными скобками обозначены формы облаков: Ci - перистые, Cs - перисто-слоистые, Cc - перисто-кучевые, Ac - высококучевые, As - высокослоистые, Sc - слоисто-кучевые, Ns - слоисто-дождевые, Cu - кучевые, Cb - кучево-дождевые. Подробнее классификацию облаков см. в Атласе облаков (PDF).
T - Температура воздуха - температура, измеренная на высоте 2 м над землей.
Td - Температура точки росы - температура, при понижении до которой содержащийся в воздухе водяной пар достигнет насыщения.
f - Относительная влажность воздуха - влажноcть воздуха, измеренная на высоте 2 м над землей.
Te - Эффективная температура - температура, которую ощущает одетый по сезону человек в тени. Характеристика душности погоды. При расчете учитывается влияние влажности воздуха и скорости ветра на теплоощущения человека.
Tes - Эффективная температура на солнце - температура, которую ощущает человек, с поправкой на солнечный нагрев. Характеристика знойности погоды. Зависит от высоты солнца над горизонтом, облачности и скорости ветра. Ночью, в пасмурную погоду, а также при ветре 12 м/с и более поправка равна нулю.
P - Атмосферное давление - приведенное к уровню моря атмосферное давление.
Po - Атмосферное давление - измеренное на уровне метеостанции атмосферное давление.
Tmin - Минимальная температура - минимум температуры воздуха на высоте 2 м над землей.
Tmax - Максимальная температура - максимум температуры воздуха на высоте 2 м над землей.
R - Количество осадков - Количество выпавших осадков за период времени, мм. При наведении курсора мыши на число - период времени, за который выпало указанное количество осадков.
R24 - Количество осадков - Количество выпавших осадков за 24 часа, мм.
S - Снежный покров - Высота снежного покрова, см. При наведении курсора мыши на число - состояние снежного покрова и степень покрытия местности в баллах.